Weather History for Caslav, Czech Republic

Change the Weather History Date:

Sunday, March 24, 2013

  Actual Average Record
Temperature  
Mean Temperature 22 °F -  
Max Temperature 33 °F - - ()
Min Temperature 12 °F - - ()
Degree Days  
Heating Degree Days 42    
Moisture  
Dew Point 7 °F    
Average Humidity 53    
Maximum Humidity 79    
Minimum Humidity 27    
Precipitation  
Precipitation 0.00 in - - ()
Sea Level Pressure  
Sea Level Pressure 30.12 in    
Wind  
Wind Speed 8 mph ()    
Max Wind Speed 21 mph    
Max Gust Speed 29 mph    
T = Trace of Precipitation, MM = Missing Value Source: Averaged Metar Reports

Daily Weather History Graph

Daily Weather History Graph

Search for Another Location

Airport:

Trip Planner

Search our weather history database for the weather conditions in past years. The results will help you decide how hot, cold, wet, or windy it might be!

Date:

Astronomy

Mar. 24, 2013 Rise Set
Actual Time 5:52 AM CET 6:17 PM CET
Civil Twilight 5:20 AM CET 6:50 PM CET
Nautical Twilight 4:41 AM CET 7:28 PM CET
Astronomical Twilight 4:02 AM CET 8:08 PM CET
Moon 3:14 PM CET (3/24) 4:08 AM CET (3/24)
Length of Visible Light 13h 29m
Length of Day
12h 25m
Waxing Gibbous, 90% of the Moon is Illuminated
Mar 24
Waxing Gibbous
Mar 27
Full
Apr 3
Last Quarter
Apr 10
New
Apr 18
First Quarter

Hourly Weather History & Observations

Time (CET) Temp. Windchill Dew Point Humidity Pressure Visibility Wind Dir Wind Speed Gust Speed Precip Events Conditions
12:00 AM 15.8 °F 8.6 °F 5.0 °F 62% 30.18 in - NE 4.6 mph - N/A   Clear
1:00 AM 14.0 °F 8.2 °F 6.8 °F 73% 30.18 in - NE 3.5 mph - N/A   Clear
2:00 AM 14.0 °F 6.5 °F 6.8 °F 73% 30.18 in - NE 4.6 mph - N/A   Clear
3:00 AM 14.0 °F - 6.8 °F 73% 30.18 in - Variable 2.3 mph - N/A   Clear
4:00 AM 12.2 °F 4.3 °F 6.8 °F 79% 30.15 in - NE 4.6 mph - N/A   Clear
5:00 AM 12.2 °F 4.3 °F 6.8 °F 79% 30.15 in - NNE 4.6 mph - N/A   Clear
6:00 AM 14.0 °F - 6.8 °F 73% 30.18 in - Variable 2.3 mph - N/A   Clear
7:00 AM 14.0 °F 6.5 °F 6.8 °F 73% 30.18 in - NE 4.6 mph - N/A   Clear
8:00 AM 19.4 °F 9.5 °F 5.0 °F 54% 30.15 in - East 8.1 mph - N/A   Clear
9:00 AM 21.2 °F 7.3 °F 1.4 °F 42% 30.15 in - ENE 16.1 mph - N/A   Clear
10:00 AM 24.8 °F 12.4 °F 1.4 °F 36% 30.15 in - ENE 15.0 mph - N/A   Clear
11:00 AM 26.6 °F 13.8 °F 5.0 °F 40% 30.15 in - East 17.3 mph - N/A   Clear
12:00 PM 30.2 °F 18.1 °F 3.2 °F 32% 30.12 in - East 18.4 mph 28.8 mph N/A   Clear
1:00 PM 32.0 °F 19.8 °F 1.4 °F 27% 30.09 in - East 20.7 mph - N/A   Clear
2:00 PM 32.0 °F 20.1 °F 1.4 °F 27% 30.09 in - East 19.6 mph - N/A   Clear
3:00 PM 32.0 °F 20.1 °F 5.0 °F 32% 30.06 in - East 19.6 mph - N/A   Clear
4:00 PM 33.8 °F 23.2 °F 5.0 °F 30% 30.06 in - East 17.3 mph - N/A   Clear
5:00 PM 32.0 °F 22.1 °F 5.0 °F 32% 30.06 in - East 13.8 mph - N/A   Clear
6:00 PM 30.2 °F 20.2 °F 10.4 °F 44% 30.06 in - ENE 12.7 mph - N/A   Clear
7:00 PM 28.4 °F 18.5 °F 12.2 °F 51% 30.09 in - East 11.5 mph - N/A   Clear
8:00 PM 26.6 °F 16.8 °F 12.2 °F 55% 30.09 in - East 10.4 mph - N/A   Clear
9:00 PM 24.8 °F 14.6 °F 12.2 °F 59% 30.09 in - East 10.4 mph - N/A   Clear
10:00 PM 24.8 °F 15.3 °F 14.0 °F 64% 30.09 in - East 9.2 mph - N/A   Clear
11:00 PM 24.8 °F 14.0 °F 14.0 °F 64% 30.09 in - East 11.5 mph - N/A   Clear